QPF
0.02 0.02 0.02 0.02 0.03 0.03 0.03 0.04 0.06 0.06 0.04 0.02 0.02 0.02 0.01 0.01 0.02 0.02 0.02 0.02 0.02 0.03 0.03 0.02 0.02 0.02 0.02 0.03 0.03 0.05 0.06 0.06 0.07 0.07 0.08 0.08 0.08 0.07
0.01 0.01 0.02 0.02 0.02 0.02 0.03 0.03 0.03 0.04 0.04 0.03 0.03 0.02 0.02 0.02 0.02 0.02 0.02 0.02 0.02 0.03 0.03 0.03 0.04 0.04 0.04 0.04 0.04 0.04 0.05 0.05 0.05 0.06 0.07 0.08 0.08 0.07
0.02 0.01 0.01 0.01 0.01 0.01 0.02 0.02 0.02 0.02 0.02 0.02 0.02 0.02 0.02 0.02 0.02 0.02 0.03 0.03 0.02 0.03 0.04 0.04 0.05 0.05 0.05 0.05 0.05 0.05 0.05 0.06 0.06 0.05 0.06 0.07 0.07 0.06
0.02 0.02 0.02 0.01 0.01 0.01 0.01 0.01 0.01 0.02 0.02 0.02 0.01 0.02 0.02 0.02 0.02 0.02 0.02 0.03 0.03 0.03 0.04 0.05 0.05 0.05 0.05 0.06 0.06 0.07 0.07 0.08 0.08 0.06 0.05 0.06 0.06 0.05
0.01 0.01 0.01 0.02 0.01 0.01 0.01 0.01 0.01 0.01 0.01 0.02 0.01 0.01 0.02 0.02 0.02 0.03 0.02 0.02 0.03 0.04 0.04 0.04 0.05 0.05 0.06 0.06 0.06 0.06 0.07 0.07 0.07 0.06 0.05 0.04 0.04 0.03
0.01 0.01 0.01 0.01 0.01 0.01 0.01 0.01 0.01 0.01 0.01 0.02 0.02 0.01 0.02 0.03 0.03 0.04 0.03 0.03 0.03 0.04 0.04 0.04 0.04 0.05 0.05 0.05 0.05 0.05 0.05 0.05 0.06 0.05 0.04 0.03 0.03 0.02
0.01 0.01 0.01 0.01 0.01 0.02 0.02 0.02 0.01 0.01 0.02 0.02 0.03 0.02 0.02 0.04 0.04 0.05 0.04 0.04 0.03 0.03 0.03 0.05 0.05 0.04 0.04 0.05 0.05 0.05 0.05 0.05 0.05 0.05 0.04 0.03 0.03 0.02
0.01 0.01 0.01 0.01 0.01 0.02 0.02 0.02 0.02 0.02 0.02 0.03 0.03 0.03 0.04 0.06 0.06 0.06 0.05 0.04 0.04 0.03 0.03 0.04 0.04 0.04 0.04 0.05 0.06 0.06 0.06 0.05 0.04 0.04 0.04 0.03 0.02 0.02
0.01 0.01 0.01 0.01 0.01 0.01 0.02 0.02 0.01 0.01 0.02 0.02 0.04 0.05 0.06 0.08 0.08 0.07 0.05 0.04 0.04 0.03 0.02 0.03 0.03 0.04 0.04 0.04 0.04 0.05 0.06 0.05 0.04 0.04 0.04 0.03 0.02 0.03
0.01 0.01 0.01 0.01 0.01 0.02 0.02 0.02 0.01 0.01 0.01 0.02 0.04 0.05 0.06 0.08 0.07 0.06 0.05 0.03 0.03 0.02 0.02 0.04 0.04 0.04 0.04 0.03 0.03 0.04 0.05 0.04 0.03 0.03 0.04 0.03 0.02 0.03
0.01 0.01 0.01 0.01 0.02 0.02 0.02 0.02 0.02 0.01 0.02 0.02 0.03 0.04 0.05 0.06 0.06 0.05 0.03 0.03 0.04 0.03 0.03 0.04 0.04 0.03 0.03 0.04 0.04 0.05 0.06 0.04 0.04 0.03 0.03 0.02 0.02 0.03
0.02 0.02 0.01 0.01 0.02 0.02 0.02 0.02 0.02 0.02 0.03 0.03 0.03 0.04 0.04 0.06 0.07 0.06 0.04 0.04 0.05 0.04 0.03 0.03 0.03 0.03 0.04 0.05 0.06 0.07 0.06 0.05 0.05 0.03 0.02 0.03 0.02 0.02
0.02 0.02 0.02 0.02 0.02 0.03 0.02 0.02 0.03 0.03 0.03 0.03 0.03 0.03 0.03 0.05 0.05 0.05 0.05 0.05 0.05 0.04 0.03 0.03 0.03 0.02 0.04 0.05 0.07 0.07 0.07 0.07 0.06 0.04 0.03 0.03 0.03 0.02
0.04 0.03 0.03 0.03 0.03 0.03 0.03 0.03 0.03 0.03 0.03 0.03 0.03 0.03 0.04 0.06 0.06 0.05 0.05 0.05 0.04 0.04 0.03 0.03 0.02 0.03 0.03 0.04 0.06 0.08 0.08 0.08 0.06 0.05 0.04 0.04 0.04 0.03
0.08 0.06 0.04 0.03 0.03 0.03 0.03 0.04 0.04 0.03 0.03 0.03 0.03 0.03 0.04 0.05 0.05 0.04 0.03 0.03 0.04 0.04 0.04 0.03 0.03 0.03 0.03 0.04 0.06 0.07 0.09 0.09 0.06 0.05 0.04 0.04 0.04 0.03
0.06 0.06 0.05 0.05 0.04 0.04 0.04 0.04 0.04 0.02 0.02 0.02 0.02 0.02 0.03 0.03 0.04 0.03 0.03 0.03 0.04 0.05 0.05 0.05 0.04 0.04 0.04 0.04 0.05 0.06 0.07 0.08 0.07 0.04 0.04 0.04 0.04 0.04
0.02 0.02 0.03 0.04 0.03 0.03 0.04 0.04 0.03 0.03 0.02 0.02 0.02 0.02 0.02 0.02 0.03 0.03 0.03 0.03 0.03 0.04 0.04 0.05 0.05 0.04 0.04 0.04 0.05 0.05 0.05 0.05 0.05 0.04 0.03 0.04 0.05 0.04
0.02 0.02 0.02 0.02 0.02 0.02 0.02 0.03 0.03 0.03 0.02 0.02 0.02 0.02 0.02 0.02 0.03 0.03 0.02 0.02 0.03 0.03 0.03 0.03 0.04 0.04 0.04 0.05 0.05 0.04 0.04 0.04 0.04 0.03 0.02 0.04 0.05 0.05
0.02 0.02 0.02 0.02 0.02 0.02 0.02 0.02 0.02 0.02 0.02 0.02 0.03 0.03 0.03 0.03 0.03 0.03 0.03 0.03 0.03 0.03 0.03 0.03 0.04 0.05 0.05 0.06 0.06 0.05 0.04 0.04 0.04 0.04 0.03 0.03 0.04 0.05
0.02 0.02 0.01 0.01 0.02 0.02 0.02 0.02 0.02 0.02 0.02 0.02 0.03 0.03 0.03 0.04 0.04 0.03 0.03 0.03 0.03 0.03 0.03 0.03 0.04 0.04 0.05 0.05 0.06 0.06 0.05 0.04 0.04 0.04 0.04 0.04 0.04 0.05
0.02 0.02 0.02 0.02 0.02 0.02 0.02 0.02 0.02 0.02 0.02 0.02 0.03 0.03 0.03 0.03 0.03 0.03 0.03 0.03 0.03 0.03 0.04 0.04 0.04 0.04 0.04 0.04 0.05 0.06 0.06 0.06 0.05 0.04 0.03 0.04 0.04 0.04
0.02 0.02 0.02 0.03 0.03 0.03 0.03 0.03 0.03 0.03 0.03 0.03 0.03 0.03 0.03 0.03 0.03 0.03 0.03 0.03 0.03 0.03 0.03 0.04 0.03 0.03 0.03 0.03 0.04 0.06 0.07 0.06 0.06 0.04 0.03 0.03 0.04 0.04
0.02 0.03 0.03 0.03 0.04 0.04 0.04 0.04 0.04 0.03 0.03 0.03 0.03 0.03 0.03 0.03 0.03 0.03 0.03 0.03 0.03 0.02 0.03 0.03 0.03 0.03 0.03 0.03 0.04 0.04 0.05 0.05 0.04 0.04 0.05 0.05 0.04 0.04
MSLP
1023.51 1023.03 1022.45 1021.71 1020.75 1019.54 1018.10 1016.48 1014.75 1012.99 1011.29 1009.72 1008.31 1007.09 1006.00 1005.02 1004.09 1003.17 1002.24 1001.30 1000.40 999.59 998.93 998.47 998.22 998.20 998.34 998.61 998.91 999.18 999.37 999.46 999.46 999.43 999.41 999.49 999.74 1000.19
1022.93 1022.42 1021.80 1021.02 1020.03 1018.81 1017.36 1015.73 1013.99 1012.22 1010.49 1008.86 1007.37 1006.02 1004.77 1003.60 1002.47 1001.34 1000.21 999.11 998.09 997.22 996.54 996.12 995.97 996.08 996.39 996.83 997.31 997.75 998.09 998.30 998.41 998.46 998.51 998.65 998.94 999.44
1022.33 1021.75 1021.08 1020.26 1019.24 1018.00 1016.55 1014.94 1013.22 1011.47 1009.73 1008.06 1006.49 1005.01 1003.60 1002.23 1000.87 999.51 998.18 996.90 995.74 994.79 994.10 993.71 993.65 993.88 994.35 994.96 995.61 996.21 996.71 997.06 997.29 997.44 997.58 997.80 998.17 998.74
1021.76 1021.11 1020.37 1019.50 1018.45 1017.20 1015.77 1014.18 1012.50 1010.76 1009.02 1007.32 1005.66 1004.06 1002.48 1000.91 999.33 997.75 996.21 994.76 993.48 992.46 991.75 991.40 991.42 991.77 992.37 993.13 993.93 994.69 995.32 995.80 996.15 996.41 996.65 996.97 997.42 998.08
1021.25 1020.53 1019.73 1018.81 1017.73 1016.47 1015.05 1013.49 1011.83 1010.11 1008.36 1006.62 1004.89 1003.15 1001.41 999.65 997.87 996.10 994.38 992.79 991.42 990.35 989.65 989.34 989.44 989.88 990.60 991.47 992.40 993.27 994.02 994.62 995.07 995.44 995.78 996.20 996.76 997.50
1020.81 1020.04 1019.18 1018.21 1017.10 1015.83 1014.42 1012.87 1011.22 1009.51 1007.74 1005.95 1004.13 1002.27 1000.38 998.46 996.51 994.59 992.75 991.07 989.65 988.57 987.89 987.64 987.81 988.33 989.13 990.09 991.10 992.05 992.88 993.57 994.11 994.58 995.03 995.54 996.20 997.04
1020.44 1019.61 1018.71 1017.69 1016.55 1015.27 1013.85 1012.31 1010.66 1008.93 1007.13 1005.27 1003.37 1001.40 999.39 997.34 995.28 993.26 991.35 989.64 988.22 987.17 986.54 986.35 986.58 987.16 988.01 989.02 990.07 991.06 991.95 992.70 993.32 993.87 994.42 995.04 995.79 996.73
1020.10 1019.23 1018.28 1017.23 1016.06 1014.77 1013.34 1011.78 1010.11 1008.35 1006.51 1004.59 1002.60 1000.55 998.44 996.31 994.18 992.13 990.21 988.51 987.14 986.15 985.58 985.45 985.72 986.34 987.21 988.22 989.28 990.30 991.21 992.00 992.70 993.34 993.98 994.71 995.57 996.59
1019.77 1018.86 1017.87 1016.79 1015.60 1014.29 1012.84 1011.27 1009.58 1007.78 1005.89 1003.92 1001.86 999.74 997.58 995.40 993.26 991.21 989.32 987.69 986.38 985.46 984.95 984.87 985.17 985.78 986.64 987.64 988.67 989.68 990.62 991.46 992.22 992.96 993.71 994.56 995.53 996.65
1019.44 1018.50 1017.48 1016.38 1015.17 1013.83 1012.37 1010.78 1009.07 1007.25 1005.32 1003.30 1001.21 999.05 996.86 994.68 992.55 990.54 988.72 987.15 985.91 985.05 984.59 984.52 984.81 985.40 986.21 987.16 988.17 989.17 990.12 991.01 991.87 992.72 993.61 994.59 995.68 996.91
1019.13 1018.16 1017.13 1016.01 1014.79 1013.45 1011.98 1010.38 1008.66 1006.82 1004.88 1002.84 1000.72 998.56 996.38 994.21 992.12 990.16 988.40 986.90 985.72 984.89 984.44 984.35 984.59 985.12 985.86 986.75 987.71 988.70 989.69 990.66 991.63 992.62 993.66 994.80 996.04 997.38
1018.87 1017.90 1016.86 1015.74 1014.52 1013.18 1011.73 1010.14 1008.43 1006.59 1004.65 1002.62 1000.51 998.36 996.21 994.08 992.04 990.13 988.42 986.96 985.80 984.98 984.49 984.35 984.51 984.95 985.60 986.42 987.34 988.33 989.36 990.43 991.53 992.68 993.90 995.20 996.58 998.05
1018.72 1017.75 1016.72 1015.62 1014.43 1013.12 1011.69 1010.13 1008.44 1006.64 1004.73 1002.73 1000.66 998.55 996.44 994.37 992.37 990.52 988.84 987.39 986.23 985.37 984.82 984.59 984.65 984.98 985.53 986.27 987.15 988.15 989.24 990.41 991.65 992.96 994.35 995.82 997.34 998.91
1018.70 1017.76 1016.77 1015.71 1014.56 1013.29 1011.91 1010.41 1008.78 1007.03 1005.18 1003.24 1001.23 999.18 997.14 995.12 993.19 991.37 989.72 988.28 987.09 986.17 985.54 985.20 985.14 985.35 985.80 986.46 987.31 988.31 989.46 990.72 992.09 993.55 995.09 996.69 998.33 999.97
1018.83 1017.95 1017.02 1016.02 1014.93 1013.74 1012.42 1010.99 1009.44 1007.77 1006.01 1004.15 1002.23 1000.28 998.31 996.38 994.51 992.74 991.12 989.67 988.45 987.48 986.76 986.31 986.14 986.23 986.58 987.17 987.98 988.98 990.16 991.49 992.96 994.52 996.17 997.86 999.56 1001.24
1019.10 1018.30 1017.45 1016.53 1015.53 1014.42 1013.19 1011.86 1010.40 1008.84 1007.18 1005.44 1003.63 1001.79 999.94 998.10 996.32 994.62 993.04 991.61 990.38 989.35 988.57 988.03 987.76 987.76 988.01 988.53 989.29 990.27 991.46 992.82 994.33 995.94 997.63 999.35 1001.05 1002.70
1019.47 1018.77 1018.02 1017.19 1016.28 1015.27 1014.15 1012.92 1011.59 1010.15 1008.62 1007.01 1005.35 1003.64 1001.92 1000.22 998.54 996.94 995.43 994.05 992.84 991.81 990.98 990.39 990.05 989.97 990.14 990.59 991.29 992.23 993.38 994.72 996.21 997.81 999.47 1001.14 1002.78 1004.36
1019.92 1019.32 1018.66 1017.94 1017.13 1016.22 1015.21 1014.10 1012.90 1011.60 1010.22 1008.77 1007.26 1005.72 1004.16 1002.61 1001.08 999.60 998.20 996.90 995.74 994.74 993.92 993.31 992.93 992.79 992.90 993.28 993.91 994.78 995.86 997.13 998.54 1000.06 1001.62 1003.19 1004.72 1006.17
1020.39 1019.88 1019.32 1018.69 1017.98 1017.18 1016.29 1015.30 1014.23 1013.08 1011.86 1010.58 1009.24 1007.88 1006.50 1005.11 1003.75 1002.42 1001.15 999.97 998.90 997.96 997.18 996.58 996.19 996.02 996.08 996.39 996.94 997.72 998.70 999.86 1001.15 1002.54 1003.97 1005.40 1006.78 1008.08
1020.85 1020.42 1019.94 1019.39 1018.78 1018.08 1017.30 1016.44 1015.51 1014.51 1013.45 1012.34 1011.18 1010.00 1008.80 1007.60 1006.40 1005.24 1004.12 1003.07 1002.10 1001.25 1000.53 999.97 999.59 999.41 999.43 999.68 1000.14 1000.82 1001.68 1002.70 1003.85 1005.09 1006.37 1007.64 1008.87 1010.02
1021.30 1020.92 1020.51 1020.03 1019.50 1018.89 1018.22 1017.48 1016.68 1015.83 1014.93 1013.98 1013.00 1011.99 1010.96 1009.93 1008.91 1007.90 1006.93 1006.01 1005.16 1004.41 1003.77 1003.25 1002.90 1002.71 1002.70 1002.89 1003.27 1003.84 1004.58 1005.46 1006.47 1007.55 1008.68 1009.80 1010.89 1011.91
1021.71 1021.38 1021.01 1020.60 1020.13 1019.61 1019.03 1018.41 1017.74 1017.02 1016.26 1015.47 1014.64 1013.79 1012.93 1012.05 1011.17 1010.31 1009.47 1008.67 1007.94 1007.27 1006.70 1006.24 1005.91 1005.73 1005.70 1005.83 1006.14 1006.61 1007.23 1007.99 1008.86 1009.80 1010.79 1011.79 1012.76 1013.68
1022.10 1021.80 1021.46 1021.09 1020.68 1020.24 1019.76 1019.23 1018.68 1018.09 1017.46 1016.80 1016.11 1015.39 1014.66 1013.91 1013.16 1012.41 1011.69 1010.99 1010.35 1009.77 1009.27 1008.86 1008.56 1008.38 1008.33 1008.42 1008.66 1009.04 1009.56 1010.21 1010.96 1011.78 1012.66 1013.55 1014.43 1015.27
Thickness
5433 5433 5434 5434 5434 5435 5435 5436 5436 5438 5441 5443 5445 5449 5452 5456 5459 5463 5467 5471 5474 5478 5482 5486 5490 5492 5494 5496 5498 5501 5504 5506 5509 5512 5515 5517 5520 5523
5422 5422 5423 5423 5423 5424 5425 5426 5427 5428 5429 5432 5434 5437 5440 5445 5448 5452 5456 5460 5463 5467 5472 5476 5479 5481 5484 5486 5488 5490 5492 5495 5498 5501 5503 5506 5508 5511
5412 5412 5412 5412 5413 5413 5414 5415 5417 5417 5418 5421 5423 5427 5430 5434 5438 5442 5446 5449 5453 5456 5460 5464 5468 5470 5472 5474 5476 5479 5481 5484 5487 5489 5491 5493 5496 5498
5402 5402 5402 5402 5402 5403 5404 5405 5407 5407 5408 5411 5414 5416 5420 5423 5427 5431 5435 5439 5442 5445 5449 5452 5456 5458 5461 5463 5465 5467 5469 5471 5474 5476 5479 5481 5483 5485
5393 5392 5393 5393 5393 5393 5394 5395 5397 5398 5399 5401 5404 5407 5410 5414 5417 5421 5424 5428 5431 5434 5437 5440 5443 5446 5449 5451 5453 5455 5457 5460 5462 5464 5465 5467 5469 5472
5384 5384 5385 5385 5385 5386 5387 5387 5388 5389 5390 5392 5395 5398 5401 5404 5406 5410 5414 5417 5420 5423 5425 5427 5430 5433 5436 5439 5441 5443 5445 5447 5449 5451 5453 5455 5457 5459
5377 5377 5378 5378 5379 5380 5381 5381 5380 5380 5381 5383 5386 5388 5391 5394 5396 5400 5403 5406 5409 5411 5413 5415 5418 5421 5422 5426 5428 5431 5433 5435 5437 5440 5441 5443 5445 5448
5370 5371 5371 5372 5373 5374 5375 5376 5375 5374 5374 5375 5377 5380 5383 5385 5388 5391 5392 5395 5398 5402 5402 5404 5405 5407 5410 5413 5416 5419 5422 5424 5426 5428 5430 5431 5434 5436
5363 5363 5364 5365 5366 5367 5368 5369 5370 5370 5371 5371 5372 5374 5376 5379 5381 5383 5384 5385 5388 5391 5391 5393 5394 5396 5399 5401 5405 5408 5410 5412 5414 5416 5417 5419 5423 5425
5357 5357 5358 5359 5360 5361 5362 5363 5364 5365 5366 5367 5368 5371 5372 5374 5375 5377 5377 5378 5380 5381 5382 5383 5384 5386 5389 5392 5395 5397 5399 5401 5403 5404 5406 5409 5411 5413
5352 5352 5353 5354 5355 5356 5356 5357 5359 5360 5362 5363 5364 5366 5367 5369 5370 5370 5370 5371 5372 5373 5373 5373 5375 5376 5380 5384 5387 5389 5391 5392 5393 5394 5396 5399 5400 5401
5347 5348 5349 5349 5350 5351 5351 5352 5353 5355 5356 5358 5359 5360 5361 5363 5364 5363 5364 5364 5364 5364 5365 5365 5366 5367 5370 5375 5378 5381 5382 5383 5383 5384 5386 5388 5389 5389
5342 5343 5343 5344 5346 5346 5347 5348 5349 5350 5351 5352 5354 5355 5356 5356 5357 5357 5357 5358 5358 5358 5358 5358 5359 5360 5361 5364 5368 5371 5373 5374 5374 5375 5376 5377 5378 5379
5336 5337 5338 5339 5341 5342 5343 5344 5345 5346 5346 5347 5348 5349 5350 5350 5350 5350 5350 5351 5351 5352 5352 5353 5353 5354 5354 5356 5359 5361 5363 5364 5365 5365 5366 5367 5368 5369
5331 5332 5333 5335 5336 5337 5338 5340 5341 5341 5342 5343 5344 5344 5344 5344 5344 5344 5344 5344 5345 5345 5346 5347 5347 5347 5348 5349 5350 5352 5353 5355 5356 5356 5356 5357 5359 5361
5325 5326 5328 5330 5331 5333 5334 5335 5336 5336 5337 5337 5338 5338 5338 5338 5338 5338 5338 5338 5338 5339 5340 5340 5341 5342 5342 5343 5343 5344 5345 5345 5346 5347 5348 5349 5351 5352
5319 5320 5321 5322 5324 5326 5328 5330 5330 5331 5332 5332 5332 5332 5332 5332 5332 5332 5333 5332 5332 5332 5333 5333 5334 5335 5336 5337 5337 5338 5338 5338 5339 5340 5341 5342 5344 5345
5314 5314 5315 5317 5318 5320 5322 5323 5324 5325 5325 5326 5326 5326 5326 5326 5327 5327 5326 5326 5326 5326 5326 5326 5327 5329 5330 5330 5331 5332 5332 5332 5332 5333 5334 5335 5338 5339
5308 5308 5309 5311 5312 5314 5316 5317 5318 5319 5319 5319 5320 5320 5320 5321 5321 5321 5321 5321 5320 5320 5320 5320 5321 5323 5323 5323 5323 5325 5325 5325 5326 5327 5328 5329 5331 5334
5302 5302 5304 5305 5306 5308 5309 5310 5312 5313 5313 5313 5314 5314 5314 5315 5315 5315 5316 5315 5315 5314 5314 5315 5315 5316 5317 5317 5317 5317 5319 5320 5321 5322 5323 5324 5325 5328
5295 5296 5298 5299 5300 5302 5303 5304 5305 5307 5307 5308 5309 5309 5309 5309 5310 5310 5310 5310 5310 5310 5310 5311 5311 5312 5312 5312 5312 5312 5313 5315 5317 5318 5319 5320 5321 5323
5289 5290 5291 5293 5294 5296 5297 5298 5300 5301 5302 5303 5303 5304 5305 5305 5305 5305 5305 5305 5305 5306 5306 5306 5307 5308 5308 5309 5308 5307 5308 5310 5312 5314 5315 5317 5317 5318
5283 5284 5286 5287 5289 5290 5292 5293 5295 5296 5297 5298 5298 5299 5300 5301 5301 5301 5301 5301 5301 5302 5302 5302 5303 5303 5304 5304 5303 5303 5304 5305 5307 5309 5311 5313 5315 5316